Regional Weather Roundup
Issued by NWS

Home | Current Version | Previous Version | Graphics & Text | Print | Product List | Glossary On
Versions: 1 2 3 4 5 6 7 8 9 10 11 12 13 14 15 16 17 18 19 20 21 22 23 24 25 26 27 28 29 30 31 32 33 34 35 36 37 38 39 40 41 42 43 44 45 46 47 48 49 50
000
ASUS43 KFSD 221610
RWRSD

WEATHER ROUNDUP FOR SOUTH DAKOTA
NATIONAL WEATHER SERVICE SIOUX FALLS SD
1100 AM CDT TUE APR 22 2014

NOTE: "FAIR" INDICATES FEW OR NO CLOUDS BELOW 12,000 FEET WITH NO
SIGNIFICANT WEATHER AND/OR OBSTRUCTIONS TO VISIBILITY.


SDZ001>005-009-010-012>017-221700-
NORTHWEST AND NORTH CENTRAL SOUTH DAKOTA

CITY           SKY/WX    TMP DP  RH WIND       PRES   REMARKS
BUFFALO          N/A     60  31  33 SE16      29.77F
FAITH            N/A     58  31  35 SE28G35   29.87F
MOBRIDGE       SUNNY     62  31  31 SE21      29.97F
$$

SDZ012>016-024>037-041>051-057-063-072>074-221700-
SOUTHWEST AND SOUTH CENTRAL SOUTH DAKOTA

CITY           SKY/WX    TMP DP  RH WIND       PRES   REMARKS
RAPID CTY ARPT MOSUNNY   60  35  39 S14       29.82F
PIERRE         PTSUNNY   59  34  39 SE20G29   29.96F
CUSTER         PTSUNNY   64  22  20 VRB7      29.89F
ELLSWORTH AFB  MOSUNNY   59  36  41 S14       29.81
PHILIP         MOSUNNY   65  32  29 S18G25    29.87F
PINE RIDGE     PTSUNNY   65  37  35 S28G39    29.86F
SPEARFISH      FAIR      63  39  42 NE12      29.82F
WINNER         FAIR      62  29  28 SE20G30   30.01F
$$

SDZ004>011-016>023-039-040-221700-
NORTHEAST SOUTH DAKOTA

CITY           SKY/WX    TMP DP  RH WIND       PRES   REMARKS
ABERDEEN       SUNNY     57  32  38 S15       30.09F
WATERTOWN      SUNNY     53  31  42 S6        30.11F
SISSETON         N/A     57  32  38 VRB5      30.11F
$$

SDZ017-020-022-023-036>040-048>070-221700-
SOUTHEAST SOUTH DAKOTA

CITY           SKY/WX    TMP DP  RH WIND       PRES   REMARKS
SIOUX FALLS    MOSUNNY   55  32  41 SE8       30.14F
HURON          SUNNY     58  31  35 SE15      30.08F
CHAMBERLAIN      N/A     61  31  32 S23G29    30.04F
MITCHELL       SUNNY     59  32  36 SE16      30.11F
YANKTON        SUNNY     57  32  38 SE12G18   30.14F
$$

ABBREVIATIONS USED IN REMARKS
   TC - TEMPERATURE IN CELSIUS
  WCI - WIND CHILL INDEX
   HX - HEAT INDEX
  VSB - VISIBILITY




USA.gov is the U.S. government's official web portal to all federal, state and local government web resources and services.